Other Public Products
Issued by NWS Grand Forks, ND

Home | Current Version | Previous Version | Text Only | Print | Product List | Glossary On
Versions: 1 2 3 4 5 6 7 8 9 10 11 12 13 14 15 16 17 18 19 20 21 22 23 24 25 26 27 28 29 30 31 32 33 34 35 36 37 38 39 40 41 42 43 44 45 46 47 48 49 50
000
FPUS83 KFGF 250631
OPUFGF
PRAIRIE TO PINES WEATHER ROUNDUP
NATIONAL WEATHER SERVICE EASTERN NORTH DAKOTA/GRAND FORKS ND
100 AM CDT MON SEP 25 2017

 **SATELLITE DATA USED TO AUGMENT SKY COVER AT AUTOMATED STATIONS**
 *****  WEATHER ACROSS EASTERN NORTH DAKOTA  *****

CITY           SKY/WX    TMP DP  RH WIND       PRES   REMARKS
GRAND FORKS    MOCLDY    50  49  96 N12       30.02R
6HR MIN TEMP:  50; 6HR MAX TEMP:  52; 6HR PCP: TRACE;

GRAND FORKS AF DRIZZLE   50  50 100 N8        30.05R
GRAND CITY NWS NOT AVBL
BUXTON           N/A     50  50  99 NW10        N/A
DEVILS LAKE    CLOUDY    48  45  87 N10       30.09R
6HR MIN TEMP:  47; 6HR MAX TEMP:  49; 6HR PCP:  0.06;

FARGO          CLOUDY    51  50  96 NW7       30.03R
6HR MIN TEMP:  51; 6HR MAX TEMP:  53; 6HR PCP: TRACE;

WAHPETON ARPT  CLOUDY    50  46  87 NW8       30.04R
$$

 *****  WEATHER ACROSS CENTRAL AND WESTERN NORTH DAKOTA  *****

CITY           SKY/WX    TMP DP  RH WIND       PRES   REMARKS
JAMESTOWN      MOCLDY    46  45  96 N8        30.06S
6HR MIN TEMP:  46; 6HR MAX TEMP:  50;

BISMARCK       CLOUDY    48  46  93 NW5       30.11F
6HR MIN TEMP:  45; 6HR MAX TEMP:  52;

MINOT          CLOUDY    47  45  93 W8        30.11R
6HR MIN TEMP:  47; 6HR MAX TEMP:  50;

MINOT AFB      CLOUDY    44  43  94 NW7       30.09S
6HR MIN TEMP:  44; 6HR MAX TEMP:  49;

GARRISON         N/A     45  45 100 NW7       30.11S
6HR MIN TEMP:  44; 6HR MAX TEMP:  48;

WILLISTON      CLOUDY    46  44  93 SW3       30.14R
6HR MIN TEMP:  46; 6HR MAX TEMP:  48;

DICKINSON      CLOUDY    44  42  93 CALM      30.12S
6HR MIN TEMP:  44; 6HR MAX TEMP:  45;

HETTINGER      CLOUDY    44  40  85 N3        30.14F
6HR MIN TEMP:  44; 6HR MAX TEMP:  46;

$$

 *****  OTHER OBSERVATIONS NORTHEAST NORTH DAKOTA  *****

CITY           SKY/WX    TMP DP  RH WIND       PRES   REMARKS
WALHALLA       FAIR     N/A N/A N/A N12       30.05S
LANGDON        NOT AVBL
CAVALIER       CLOUDY    50  48  93 N12       30.04R
GRAFTON        NOT AVBL
CANDO          CLOUDY    46  46 100 N6        30.10S
FORT TOTTEN      N/A     48  46  91 N6        29.95S
ROLLA          CLOUDY    45  45 100 N12       30.09S
RUGBY          NOT AVBL
 ***** THE ABOVE OBSERVATIONS ARE NON NWS ARE NOT QUALITY
        CONTROLLED AND MAY MIS-REPORT RAIN FOR SNOW...
$$

 *****  OTHER OBSERVATIONS SOUTHEAST NORTH DAKOTA *****

CITY           SKY/WX    TMP DP  RH WIND       PRES   REMARKS
COOPERSTOWN    CLOUDY    50  46  87 N14G22    30.06R
VALLEY CITY    NOT AVBL
OAKES          NOT AVBL
GWINNER        CLOUDY    50  46  87 N12       30.06R
SHEYENNE NWR     N/A     51  50  97 N6        29.95S
BUFFALO          N/A     50  46  86 SW7         N/A
WYNDMERE       NOT AVBL
 ***** THE ABOVE OBSERVATIONS ARE NON NWS ARE NOT QUALITY
       CONTROLLED AND MAY MIS-REPORT RAIN FOR SNOW...
$$

  *****  WEATHER ACROSS NORTHERN MINNESOTA  *****

CITY           SKY/WX    TMP DP  RH WIND       PRES   REMARKS
FLAG ISLAND    CLOUDY    50  48  93 NW16      29.93R
WARROAD        CLOUDY    48  45  87 NW8       29.97R
ROSEAU         CLOUDY    48  45  87 W8        29.98R HAZE
HALLOCK        CLOUDY    50  48  93 NW10      30.02R
THF RVR FALLS  CLOUDY    49  47  93 NW12      30.01R
6HR MIN TEMP:  49; 6HR MAX TEMP:  51; 6HR PCP: TRACE;

HALSTAD          N/A     50  50  99 N6          N/A
FOSSTON        CLOUDY    46  46 100 NW8       30.01R FOG
BAUDETTE       CLOUDY    50  50 100 W10       29.94R
6HR MIN TEMP:  50; 6HR MAX TEMP:  55; 6HR PCP:  0.04;

WASKISH        CLOUDY    52  50  93 W10G18    29.96R
CROOKSTON      CLOUDY    48  48 100 MISG      30.02S
$$
  *****  WEATHER ACROSS CENTRAL AND WEST MINNESOTA  *****

CITY           SKY/WX    TMP DP  RH WIND       PRES   REMARKS
BEMIDJI        CLOUDY    48  47  97 NW10      29.98R FOG
6HR MIN TEMP:  49; 6HR MAX TEMP:  60;

PARK RAPIDS    MOCLDY    51  48  89 NW7       29.99R
6HR MIN TEMP:  51; 6HR MAX TEMP:  60; 6HR PCP: TRACE;

WADENA         FAIR      48  48 100 NW8       30.00R
DETROIT LAKES  CLOUDY    48  46  93 NW10      30.02S FOG
MOORHEAD       CLOUDY    50  48  93 NW8       30.03S
FERGUS FALLS   CLOUDY    50  50 100 N7        30.04R
ELBOW LAKE     CLOUDY    50  49  97 NW10G17   30.01S
MORRIS MN      CLOUDY    52  52 100 NW9       30.00S FOG
STAPLES        CLOUDY    52  48  87 NW7       29.98S
WHEATON        LGT RAIN  52  48  87 NW14      30.05R
$$
  *****  WEATHER ELSEWHERE ACROSS MINNESOTA  *****

CITY           SKY/WX    TMP DP  RH WIND       PRES   REMARKS
DULUTH         MOCLDY    65  65 100 W7        29.89R
6HR MIN TEMP:  64; 6HR MAX TEMP:  68; 6HR PCP:  0.33;

INTRNTL FALLS  CLOUDY    53  51  93 W10       29.91R
6HR MIN TEMP:  54; 6HR MAX TEMP:  68; 6HR PCP:  0.04;

ELY            CLOUDY    64  64 100 W8        29.88R
CLOQUET        LGT RAIN  64  63  94 SW5       29.91R
BRAINERD       CLOUDY    55  51  86 NW8       29.97R
6HR MIN TEMP:  56; 6HR MAX TEMP:  68;

HIBBING        MOCLDY    59  59 100 W7        29.90R
6HR MIN TEMP:  60; 6HR MAX TEMP:  65; 6HR PCP:  0.08;

ALEXANDRIA     CLOUDY    52  50  93 NW13      30.00S
6HR MIN TEMP:  52; 6HR MAX TEMP:  60;

SAINT CLOUD    CLOUDY    59  58  96 NW9       29.96R
6HR MIN TEMP:  59; 6HR MAX TEMP:  70; 6HR PCP:  0.02;

MINNEAPOLIS    CLOUDY    69  66  90 NW8       29.94S
6HR MIN TEMP:  70; 6HR MAX TEMP:  86; 6HR PCP: TRACE;

$$

  *****  WEATHER ACROSS SOUTH DAKOTA  *****

CITY           SKY/WX    TMP DP  RH WIND       PRES   REMARKS
SIOUX FALLS    CLOUDY    56  54  93 N10       30.00S
6HR MIN TEMP:  56; 6HR MAX TEMP:  59; 6HR PCP:  0.06;

BROOKINGS      CLOUDY    52  50  93 N10       30.02F
WATERTOWN      CLOUDY    50  49  96 N9        30.02R
6HR MIN TEMP:  50; 6HR MAX TEMP:  54;

HURON          CLOUDY    52  49  89 N9        30.07R
6HR MIN TEMP:  52; 6HR MAX TEMP:  55;

SISSETON         N/A     52  49  89 NW12      30.03S
ABERDEEN       CLOUDY    50  47  89 N10       30.07S
6HR MIN TEMP:  50; 6HR MAX TEMP:  54;

MITCHELL       RAIN      53  51  93 N8        30.03F
PIERRE         CLOUDY    50  46  86 N12       30.08S
6HR MIN TEMP:  49; 6HR MAX TEMP:  53; 6HR PCP:  0.03;

MOBRIDGE       CLOUDY    50  46  86 N10       30.08R
RAPID CITY     NOT AVBL
$$

  *****  SOME WEATHER IN NEARBY STATES *****

CITY           SKY/WX    TMP DP  RH WIND       PRES   REMARKS
GLASGOW MT     FAIR      40  36  86 E8        30.11S
6HR MIN TEMP:  39; 6HR MAX TEMP:  53;

GREAT FALLS MT FAIR      40  29  64 S9        30.05S
6HR MIN TEMP:  37; 6HR MAX TEMP:  56;

CHEYENNE WY    CLOUDY    40  37  89 N10       30.08F
6HR MIN TEMP:  40; 6HR MAX TEMP:  43; 6HR PCP:  0.26;

SCOTTSBLUFF NE LGT RAIN  46  44  93 NW6       30.12R FOG
6HR MIN TEMP:  47; 6HR MAX TEMP:  50; 6HR PCP:  0.01;

OMAHA NE       TSTM      64  59  83 W3        29.99R
6HR MIN TEMP:  64; 6HR MAX TEMP:  77; 6HR PCP: TRACE;

DES MOINES IA  FAIR      73  63  70 S6        29.91S
6HR MIN TEMP:  73; 6HR MAX TEMP:  84;

DAVENPORT IA   FAIR      70  62  76 SE7       29.98F
6HR MIN TEMP:  69; 6HR MAX TEMP:  78;

CHICAGO IL     FAIR      74  62  66 SE5       29.99F
6HR MIN TEMP:  72; 6HR MAX TEMP:  85;

EAU CLAIRE WI  FAIR      71  63  75 S6        29.91F
6HR MIN TEMP:  71; 6HR MAX TEMP:  82;

LA CROSSE WI   FAIR      74  65  73 SE6       29.92F
6HR MIN TEMP:  73; 6HR MAX TEMP:  84;

$$

  *****  SOME NATIONAL WEATHER *****

CITY           SKY/WX    TMP DP  RH WIND       PRES   REMARKS
LA GUARDIA NY  FAIR      73  65  75 E5        30.02F
6HR MIN TEMP:  73; 6HR MAX TEMP:  80;



USA.gov is the U.S. government's official web portal to all federal, state and local government web resources and services.